Location: Area 52 Observatory
(34.2620°N, 119.2590°W)
Time: 16:24:34
(UTC-07:00)

ISS - Visible Passes

Search period start: 18 March 2019 00:00
Search period end: 28 March 2019 00:00
Orbit: 406 x 411 km, 51.6° (Epoch: 19 March)

Date Brightness Start Highest point End Pass type
(mag) Time Alt. Az. Time Alt. Az. Time Alt. Az.
18 Mar -2.4 06:04:41 21° SW 06:04:47 21° SW 06:07:19 10° S visible
18 Mar -0.9 21:03:11 10° SW 21:03:21 11° SW 21:03:21 11° SW visible
19 Mar -1.0 05:16:59 10° SSE 05:16:59 10° SSE 05:17:02 10° SSE visible
19 Mar -3.0 20:12:34 10° SSW 20:15:31 31° SE 20:15:46 30° ESE visible
20 Mar -2.4 20:57:51 10° WSW 21:00:49 38° NW 21:00:49 38° NW visible
21 Mar -3.8 20:06:37 10° SW 20:09:53 80° NW 20:12:50 13° NE visible
22 Mar -1.1 20:53:21 10° WNW 20:55:37 17° NNW 20:57:23 12° N visible
23 Mar -1.8 20:01:29 10° W 20:04:24 28° NW 20:07:18 10° NNE visible
25 Mar -0.9 19:57:15 10° WNW 19:59:02 14° NNW 20:00:48 10° N visible
